Regional Weather Roundup
Issued by NWS

Home | Current Version | Previous Version | Graphics & Text | Print | Product List | Glossary On
Versions: 1 2 3 4 5 6 7 8 9 10 11 12 13 14 15 16 17 18 19 20 21 22 23 24 25 26 27 28 29 30 31 32 33 34 35 36 37 38 39 40 41 42 43 44 45 46 47 48 49 50
000
ASUS45 KCYS 231610
RWRWY

WYOMING REGIONAL WEATHER ROUNDUP
NATIONAL WEATHER SERVICE CHEYENNE WY
1000 AM MDT WED AUG 23 2017

NOTE:  "FAIR" INDICATES FEW OR NO CLOUDS BELOW 12,000 FEET
WITH NO SIGNIFICANT WEATHER AND/OR OBSTRUCTIONS TO VISIBILITY.

WYZ001-231700-
YELLOWSTONE NATIONAL PARK

CITY           SKY/WX    TMP DP  RH WIND       PRES   REMARKS
LK YELLOWSTONE   N/A     57  43  59 CALM      30.40F
W YELLOWSTONE  NOT AVBL

$$
WYZ002>013-054>058-071-098>099-231700-
NORTHERN WYOMING

CITY           SKY/WX    TMP DP  RH WIND       PRES   REMARKS
JACKSON        CLOUDY    58  34  40 CALM      30.33F
CODY           FAIR      75  42  30 NE7       30.15F
GREYBULL       FAIR      69  40  34 CALM      30.09F
WORLAND        FAIR      69  41  36 W3        30.10F
SHERIDAN       FAIR      74  44  34 CALM      30.07F
BUFFALO        FAIR      81  39  22 E6        30.14S
GILLETTE       FAIR      80  45  28 VRB3      30.10F
HULETT         FAIR      77  46  33 CALM      30.11S
NEWCASTLE      FAIR      73  46  38 SW3       30.12R

$$
WYZ014>020-022>026-101>103-231700-
CENTRAL WYOMING

CITY           SKY/WX    TMP DP  RH WIND       PRES   REMARKS
BIG PINEY      CLOUDY    58  40  51 SW6       30.35R
PINEDALE       CLOUDY    63  34  34 CALM      30.35S
DUBOIS         PTSUNNY   68  30  24 NW5       30.32F
LANDER           N/A    N/A N/A N/A MISG      30.20S
RIVERTON       FAIR      73  30  20 W5        30.20F
CASPER         FAIR      78  40  25 SW17      30.18F
DOUGLAS        FAIR      71  47  42 NW5       30.17S

$$
WYZ021-027>030-104>119-231700-
SOUTHERN WYOMING

CITY           SKY/WX    TMP DP  RH WIND       PRES   REMARKS
EVANSTON       PTSUNNY   62  51  67 NE6       30.38R
KEMMERER         N/A     61  43  51 NW7G17    30.40R
FORT BRIDGER   CLOUDY    61  51  69 SE8       30.40S
ROCK SPRINGS   FAIR      69  40  34 W15       30.34R
DIXON          PTSUNNY   65  42  43 CALM      30.36R
RAWLINS        NOT AVBL
SARATOGA       FAIR      72  39  30 SE8       30.34F
LARAMIE        FAIR      71  37  28 NE7       30.33S
CHEYENNE       FAIR      79  38  22 N8        30.23F
TORRINGTON     FAIR      70  55  59 W3        30.12S
PINE BLUFFS    FAIR      79  50  36 CALM      30.18S

$$



USA.gov is the U.S. government's official web portal to all federal, state and local government web resources and services.